Flag for Dominican Republic Weather past 2 weeks in Puerto Plata, Dominican Republic

Now
84 °F

Passing clouds.


Feels Like: 92 °F
Forecast: 75 / 83 °F
Wind: 6 mph from Northeast

Location: Puerto Plata International

Current Time: Jan 25, 2015 at 2:39:07 PM

Latest Report: Jan 25, 2015 at 2:00 PM


Visibility: N/A

Pressure: 29.95 "Hg

Humidity: 74%

Dew point: 75 °F

Location of Puerto PlataLocation

Historic Weather in Puerto Plata — Graph

°F

Puerto Plata temperature yesterday

Maximum temperature yesterday: 84 °F (at 12:00 PM)
Minimum temperature yesterday: 68 °F (at 5:00 AM)
Average temperature yesterday: 78 °F

Past Weeks' High & Low Weather Summary

 TemperatureHumidityPressure
High88 °F (Jan 14, 1:00 PM)100% (Jan 11, 7:00 PM)30.18 "Hg (Jan 11, 7:00 PM)
Low66 °F (Jan 21, 7:00 AM)62% (Jan 13, 1:00 PM)29.89 "Hg (Jan 14, 4:00 PM)
Average77 °F83%30.02 "Hg
* Reported Jan 10 1:00 PM — Jan 25 1:00 PM, Puerto Plata, Weather by CustomWeather, © 2014

Note: Actual official high and low records may vary slightly from our data, if they occured in-between our weather recording intervals... More about our weather records

Advertising

Puerto Plata weather history for previous 24 hours

 ConditionsComfort  
Time TempWeatherWind HumidityBarometerVisibility
1:00 PM
Jan 25
82 °FPassing clouds.6 mph74%29.98 "HgN/A
12:00 PM82 °FPassing clouds.5 mph74%30.01 "HgN/A
11:00 AM82 °FScattered clouds.6 mph74%30.01 "HgN/A
10:00 AM77 °FScattered clouds.5 mph89%30.01 "HgN/A
9:00 AM72 °FPassing clouds.No wind94%29.98 "HgN/A
8:00 AM70 °FPassing clouds.No wind94%29.98 "HgN/A
7:00 AM70 °FPassing clouds.No wind94%29.95 "HgN/A
5:00 AM70 °FPassing clouds.No wind94%29.92 "HgN/A
2:00 AM72 °FPassing clouds.No wind94%29.95 "HgN/A
11:00 PM
Jan 24
73 °FPassing clouds.No wind94%29.98 "HgN/A
8:00 PM77 °FPassing clouds.6 mph94%29.95 "HgN/A
7:00 PM79 °FPassing clouds.No wind89%29.95 "HgN/A
6:00 PM81 °FScattered clouds.7 mph84%29.92 "HgN/A
5:00 PM84 °FPassing clouds.9 mph70%29.92 "HgN/A
4:00 PM84 °FPassing clouds.12 mph70%29.92 "HgN/A
3:00 PM84 °FPassing clouds.17 mph70%29.92 "HgN/A
2:00 PM82 °FPassing clouds.5 mph74%30.04 "HgN/A
Weather by CustomWeather, © 2014

See weather overviewHow to use our weather pages